Overview Statistics Trail Chart Weather Telemetry Raw packets
 

This is the latest recevied weather packets stored in our database for station/object XE2B-20. If no packets are shown the sender has not sent any weather packets the latest 10 day(s).

<< 20 21 22 23 24 >>
Time Temp. Humidity Pressure Rain* Wind** Luminosity Snow
1787863757 37.78° C 25% 807.2 hPa - - - -
1787862259 36.67° C 27% 807.5 hPa - - - -
1787860760 35.56° C 28% 807.7 hPa - - - -
1787857765 36.67° C 27% 808.2 hPa - - - -
1787856275 36.67° C 27% 808.6 hPa - - - -
1787854772 35° C 29% 809 hPa - - - -
1787853274 35° C 29% 809.3 hPa - - - -
1787852506 32.78° C 30% 809.6 hPa - - - -
1787851000 29.44° C 34% 809.8 hPa - - - -
1787849504 29.44° C 35% 810.1 hPa - - - -
1787848006 29.44° C 33% 810.1 hPa - - - -
1787846507 25.56° C 38% 810 hPa - - - -
1787845008 26.11° C 37% 810 hPa - - - -
1787843516 26.11° C 35% 810.1 hPa - - - -
1787842012 23.89° C 37% 810 hPa - - - -
1787840513 22.78° C 38% 809.9 hPa - - - -
1787839016 21.67° C 38% 809.8 hPa - - - -
1787836020 13.33° C 48% 809.6 hPa - - - -
1787834522 12.78° C 49% 809.5 hPa - - - -
1787833023 12.78° C 49% 809.3 hPa - - - -
1787831524 13.33° C 48% 808.9 hPa - - - -
1787830027 13.33° C 48% 808.9 hPa - - - -
1787828528 13.89° C 48% 808.7 hPa - - - -
1787827030 13.89° C 47% 808.8 hPa - - - -
1787825538 14.44° C 47% 808.8 hPa - - - -

* Rain since midnight (hover to see other rain measurements)
** Current wind speed in m/s (hover to see current wind gust speed)